| time (UTC) | temp F | wind direction | speed knots | gust knots | rain 1hr in | rain 24hr in | rain mn in | humidity % | barometer mb |
| 20260902003012 | 57 | 201 | 0.0 | 0.9 | 0.00 | 0.03 | 0.00 | 92 | 1019.2 |
| 20260902001513 | 57 | 201 | 0.0 | 0.0 | 0.00 | 0.03 | 0.00 | 91 | 1019.1 |
| 20260902000009 | 58 | 202 | 0.0 | 0.9 | 0.00 | 0.03 | 0.00 | 90 | 1019.0 |
| 20260901234518 | 58 | 201 | 0.0 | 0.0 | 0.00 | 0.03 | 0.00 | 90 | 1019.0 |
| 20260901233004 | 59 | 201 | 0.0 | 0.0 | 0.00 | 0.03 | 0.00 | 89 | 1018.9 |
| 20260901231505 | 59 | 254 | 0.0 | 0.9 | 0.00 | 0.03 | 0.00 | 89 | 1018.9 |
| 20260901230002 | 59 | 258 | 0.0 | 0.0 | 0.00 | 0.03 | 0.00 | 88 | 1018.9 |
| 20260901224559 | 60 | 254 | 0.0 | 1.7 | 0.00 | 0.03 | 0.00 | 88 | 1018.9 |
| 20260901223112 | 60 | 202 | 0.0 | 0.9 | 0.00 | 0.03 | 0.00 | 87 | 1018.9 |
| 20260901221554 | 61 | 267 | 0.0 | 1.7 | 0.00 | 0.03 | 0.00 | 86 | 1018.8 |
| 20260901220059 | 61 | 296 | 0.0 | 3.5 | 0.00 | 0.03 | 0.00 | 86 | 1018.7 |
| 20260901214550 | 61 | 239 | 0.0 | 1.7 | 0.00 | 0.03 | 0.03 | 84 | 1018.6 |
| 20260901213050 | 62 | 297 | 0.0 | 0.9 | 0.00 | 0.03 | 0.03 | 83 | 1018.6 |
| 20260901211554 | 62 | 297 | 0.0 | 3.5 | 0.00 | 0.03 | 0.03 | 83 | 1018.5 |
| 20260901210057 | 63 | 177 | 0.0 | 1.7 | 0.00 | 0.03 | 0.03 | 81 | 1018.5 |
| 20260901204549 | 63 | 271 | 0.0 | 2.6 | 0.00 | 0.03 | 0.03 | 80 | 1018.4 |
| 20260901203050 | 63 | 243 | 0.0 | 5.2 | 0.00 | 0.03 | 0.03 | 79 | 1018.5 |
| 20260901201543 | 64 | 292 | 0.0 | 4.3 | 0.00 | 0.03 | 0.03 | 77 | 1018.4 |
| 20260901200054 | 65 | 263 | 0.0 | 2.6 | 0.00 | 0.03 | 0.03 | 76 | 1018.4 |
| 20260901194559 | 65 | 333 | 0.0 | 4.3 | 0.00 | 0.06 | 0.03 | 74 | 1018.2 |
| 20260901193040 | 66 | 236 | 0.0 | 5.2 | 0.00 | 0.06 | 0.03 | 72 | 1018.2 |
| 20260901191538 | 66 | 279 | 0.9 | 5.2 | 0.00 | 0.06 | 0.03 | 71 | 1018.1 |
| 20260901190042 | 66 | 282 | 0.0 | 5.2 | 0.00 | 0.06 | 0.03 | 71 | 1018.1 |
| 20260901184536 | 67 | 295 | 0.9 | 6.1 | 0.00 | 0.07 | 0.03 | 70 | 1017.9 |
| 20260901183041 | 67 | 276 | 3.5 | 7.8 | 0.00 | 0.07 | 0.03 | 66 | 1017.7 |
| 20260901181536 | 68 | 323 | 1.7 | 3.5 | 0.00 | 0.07 | 0.03 | 66 | 1017.5 |
| 20260901180030 | 68 | 259 | 1.7 | 6.1 | 0.00 | 0.07 | 0.03 | 67 | 1017.3 |
| 20260901174530 | 68 | 269 | 1.7 | 6.1 | 0.00 | 0.08 | 0.03 | 67 | 1017.1 |
| 20260901173029 | 68 | 310 | 0.9 | 3.5 | 0.00 | 0.08 | 0.03 | 66 | 1016.9 |
| 20260901171529 | 69 | 115 | 0.0 | 2.6 | 0.00 | 0.08 | 0.03 | 65 | 1016.9 |
| 20260901170028 | 69 | 234 | 0.0 | 1.7 | 0.00 | 0.08 | 0.03 | 64 | 1016.8 |
| 20260901164527 | 70 | 198 | 0.9 | 4.3 | 0.00 | 0.08 | 0.03 | 64 | 1016.7 |
| 20260901163026 | 70 | 266 | 0.0 | 7.0 | 0.00 | 0.08 | 0.03 | 62 | 1016.8 |
| 20260901160058 | 71 | 250 | 2.6 | 7.0 | 0.00 | 0.08 | 0.03 | 58 | 1016.7 |
| 20260901154553 | 71 | 266 | 1.7 | 7.8 | 0.00 | 0.08 | 0.03 | 57 | 1016.7 |
| 20260901153053 | 72 | 187 | 1.7 | 6.1 | 0.00 | 0.08 | 0.03 | 59 | 1016.6 |
| 20260901151554 | 72 | 201 | 1.7 | 5.2 | 0.00 | 0.08 | 0.03 | 59 | 1016.6 |
| 20260901150051 | 72 | 255 | 1.7 | 10.4 | 0.00 | 0.08 | 0.03 | 60 | 1016.6 |
| 20260901144550 | 72 | 10 | 0.9 | 5.2 | 0.00 | 0.08 | 0.03 | 62 | 1016.7 |
| 20260901143050 | 72 | 292 | 0.9 | 6.1 | 0.00 | 0.08 | 0.03 | 61 | 1016.6 |
| 20260901141557 | 73 | 275 | 1.7 | 13.0 | 0.00 | 0.08 | 0.03 | 58 | 1016.6 |
| 20260901140051 | 74 | 215 | 1.7 | 9.6 | 0.00 | 0.08 | 0.03 | 57 | 1016.6 |
| 20260901134547 | 75 | 248 | 2.6 | 6.1 | 0.00 | 0.08 | 0.03 | 56 | 1016.7 |
| 20260901133047 | 75 | 284 | 0.9 | 9.6 | 0.00 | 0.08 | 0.03 | 59 | 1016.8 |
| 20260901131545 | 72 | 356 | 0.0 | 5.2 | 0.00 | 0.08 | 0.03 | 63 | 1016.9 |
| 20260901130045 | 76 | 195 | 1.7 | 8.7 | 0.00 | 0.08 | 0.03 | 56 | 1016.8 |
| 20260901124551 | 75 | 281 | 0.9 | 7.0 | 0.00 | 0.08 | 0.03 | 60 | 1016.9 |
| 20260901123043 | 74 | 308 | 1.7 | 5.2 | 0.00 | 0.08 | 0.03 | 61 | 1016.9 |
| 20260901121546 | 74 | 158 | 2.6 | 7.8 | 0.00 | 0.08 | 0.03 | 59 | 1017.0 |
| 20260901120037 | 74 | 211 | 2.6 | 13.0 | 0.00 | 0.08 | 0.03 | 60 | 1017.2 |
| 20260901114538 | 72 | 231 | 1.7 | 10.4 | 0.00 | 0.08 | 0.03 | 64 | 1017.1 |
| 20260901113041 | 71 | 249 | 2.6 | 10.4 | 0.00 | 0.08 | 0.03 | 65 | 1017.2 |
| 20260901111537 | 73 | 297 | 1.7 | 7.0 | 0.00 | 0.08 | 0.03 | 62 | 1017.1 |
| 20260901110039 | 71 | 262 | 1.7 | 7.0 | 0.00 | 0.08 | 0.03 | 67 | 1017.1 |
| 20260901104530 | 72 | 296 | 1.7 | 7.0 | 0.00 | 0.08 | 0.03 | 64 | 1017.1 |
| 20260901103028 | 71 | 311 | 3.5 | 8.7 | 0.00 | 0.08 | 0.03 | 66 | 1017.2 |
| 20260901101527 | 69 | 259 | 1.7 | 8.7 | 0.00 | 0.08 | 0.03 | 70 | 1017.2 |
| 20260901100022 | 68 | 263 | 2.6 | 6.1 | 0.00 | 0.08 | 0.03 | 73 | 1017.1 |
| 20260901094527 | 68 | 277 | 2.6 | 7.0 | 0.00 | 0.08 | 0.03 | 73 | 1017.1 |
| 20260901093020 | 68 | 296 | 0.9 | 6.1 | 0.00 | 0.08 | 0.03 | 75 | 1017.0 |
| 20260901091524 | 69 | 304 | 0.9 | 6.1 | 0.00 | 0.08 | 0.03 | 76 | 1016.8 |
| 20260901090014 | 67 | 242 | 0.9 | 7.8 | 0.00 | 0.08 | 0.03 | 80 | 1016.7 |
| 20260901084510 | 64 | 278 | 0.9 | 7.8 | 0.00 | 0.09 | 0.03 | 87 | 1016.7 |
| 20260901083006 | 63 | 313 | 0.9 | 6.1 | 0.00 | 0.09 | 0.03 | 90 | 1016.7 |
| 20260901081506 | 63 | 238 | 0.0 | 4.3 | 0.00 | 0.09 | 0.03 | 91 | 1016.5 |
| 20260901080048 | 63 | 263 | 1.7 | 6.1 | 0.00 | 0.09 | 0.03 | 90 | 1016.3 |
| 20260901074545 | 62 | 153 | 0.9 | 8.7 | 0.00 | 0.17 | 0.03 | 93 | 1016.2 |
| 20260901073041 | 62 | 252 | 0.9 | 3.5 | 0.00 | 0.17 | 0.03 | 94 | 1016.1 |
| 20260901071536 | 61 | 173 | 0.9 | 4.3 | 0.00 | 0.17 | 0.03 | 96 | 1016.0 |
| 20260901070036 | 60 | 298 | 0.0 | 2.6 | 0.00 | 0.17 | 0.03 | 96 | 1015.9 |
| 20260901064536 | 60 | 271 | 1.7 | 7.0 | 0.00 | 0.19 | 0.03 | 96 | 1015.8 |
| 20260901063026 | 60 | 177 | 0.9 | 3.5 | 0.00 | 0.19 | 0.03 | 97 | 1015.6 |
| 20260901061524 | 59 | 209 | 0.9 | 4.3 | 0.00 | 0.19 | 0.03 | 97 | 1015.5 |
| 20260901060022 | 59 | 249 | 0.0 | 2.6 | 0.00 | 0.19 | 0.03 | 97 | 1015.4 |
| 20260901054523 | 60 | 146 | 0.9 | 5.2 | 0.00 | 0.19 | 0.03 | 97 | 1015.2 |
| 20260901053022 | 59 | 239 | 0.0 | 2.6 | 0.00 | 0.19 | 0.03 | 97 | 1015.1 |
| 20260901051514 | 59 | 212 | 0.0 | 2.6 | 0.00 | 0.19 | 0.03 | 97 | 1015.0 |
| 20260901050011 | 58 | 246 | 0.0 | 2.6 | 0.00 | 0.19 | 0.03 | 97 | 1014.8 |
| 20260901044507 | 58 | 192 | 0.0 | 3.5 | 0.01 | 0.19 | 0.03 | 97 | 1014.7 |
| 20260901043116 | 58 | 179 | 0.0 | 1.7 | 0.01 | 0.19 | 0.03 | 97 | 1014.5 |
| 20260901041645 | 58 | 177 | 0.0 | 2.6 | 0.01 | 0.19 | 0.03 | 97 | 1014.3 |
| 20260901040053 | 58 | 284 | 0.0 | 5.2 | 0.01 | 0.19 | 0.03 | 97 | 1014.2 |
| 20260901034558 | 58 | 194 | 0.9 | 2.6 | 0.00 | 0.18 | 0.02 | 97 | 1014.0 |
| 20260901033057 | 58 | 172 | 0.0 | 5.2 | 0.00 | 0.18 | 0.02 | 96 | 1013.8 |
| 20260901031540 | 58 | 215 | 0.0 | 6.1 | 0.01 | 0.18 | 0.02 | 96 | 1013.8 |
| 20260901030039 | 58 | 175 | 0.0 | 1.7 | 0.02 | 0.18 | 0.02 | 96 | 1013.7 |
| 20260901024546 | 58 | 225 | 0.0 | 2.6 | 0.02 | 0.18 | 0.02 | 96 | 1013.7 |
| 20260901023037 | 58 | 240 | 1.7 | 7.8 | 0.02 | 0.18 | 0.02 | 96 | 1013.6 |
| 20260901021534 | 57 | 188 | 0.0 | 4.3 | 0.00 | 0.17 | 0.01 | 96 | 1013.5 |
| 20260901020034 | 57 | 170 | 2.6 | 8.7 | 0.00 | 0.17 | 0.01 | 96 | 1013.5 |
| 20260901014533 | 57 | 200 | 0.9 | 3.5 | 0.01 | 0.17 | 0.01 | 96 | 1013.4 |
| 20260901013034 | 57 | 213 | 2.6 | 7.8 | 0.01 | 0.17 | 0.01 | 96 | 1013.3 |
| 20260901011536 | 57 | 183 | 1.7 | 7.0 | 0.01 | 0.17 | 0.01 | 96 | 1013.3 |
| 20260901010039 | 57 | 209 | 0.9 | 5.2 | 0.01 | 0.17 | 0.01 | 96 | 1013.3 |
| 20260901004530 | 57 | 157 | 0.0 | 7.0 | 0.00 | 0.16 | 0.00 | 96 | 1013.5 |